User: anonymous   Login
Location: Whispering Pines Observatory
(39.4020°N, 104.7430°W)
Time: 05:21:00
(UTC-06:00)
Language:

MOS 1 Rocket - Orbit

View from above orbital plane
View from above orbital plane
View from above satellite
View from above satellite

Ground track
Ground track

The orbit data is extracted from the following two-line orbital elements,

1 17528U 87018B   15089.14237718  .00000754  00000-0  17638-3 0  9997
2 17528 097.4251 130.6107 0152034 317.8410 104.2525 14.50353424482442
Epoch (UTC): 30 March 2015 03:25:01
Eccentricity: 0.0152034
inclination: 97.4251°
perigee height: 616 km
apogee height: 832 km
right ascension of ascending node: 130.6107°
argument of perigee: 317.8410°
revolutions per day: 14.50353424
mean anomaly at epoch: 104.2525°
orbit number at epoch: 48244

The dashed part of the orbit path shows where the satellite is in the earth's shadow,  

DLR